XIO230 LGAV-CYYT

Flight info

Callsign XIO230
Flight time 6h 55m
Altitude 38000
Route KOR UL53 KRK UL995 TIGRA/N0514F400 DCT DOLON DCT PIKEL DCT AFCAM DCT INKIM DCT ASDOR DCT LURUT DCT KOXUD DCT CERVI DCT MOLUS Z64 SAPRE L615 SIROD UH10 AMODO UM729 RESMI UN491 LGL UN502 JSY DCT NOZHU DCT LESLU/M090F430 DCT TUVEN/N0518F430 DCT UNLID DCT SUVAN DCT ADARA/M090F430 NATE ELSIR/N0516F430 DCT MIVAD AVALN5
Aircraft GLF6/M-SBDE1E2E3FGHIJ3J4J5J7M1P2RWXYZ/LB1D1

Departure

Time 2026-04-22 13:35
Airport Athens Eleftherios Venizelos International Airport (LGAV)

Arrival

Time 2026-04-22 20:31
Airport St. John's International Airport (CYYT)
Time Latitude Longitude Altitude Speed Heading
2026-04-22 12:00 37.94374 23.95523 295 ft 0 kts 218°
2026-04-22 13:30 37.94349 23.95500 296 ft 7 kts 211°
2026-04-22 13:30 37.94300 23.95549 294 ft 12 kts 123°
2026-04-22 13:30 37.94234 23.95659 294 ft 18 kts 133°
2026-04-22 13:30 37.94196 23.95660 293 ft 6 kts 223°
2026-04-22 13:31 37.94121 23.95601 294 ft 18 kts 178°
2026-04-22 13:31 37.94003 23.95617 294 ft 25 kts 217°
2026-04-22 13:31 37.93860 23.95482 293 ft 25 kts 216°
2026-04-22 13:31 37.93689 23.95318 291 ft 21 kts 216°
2026-04-22 13:32 37.93565 23.95201 291 ft 24 kts 217°
2026-04-22 13:32 37.93470 23.95111 294 ft 26 kts 218°
2026-04-22 13:32 37.93316 23.94963 294 ft 29 kts 217°
2026-04-22 13:32 37.93146 23.94804 295 ft 32 kts 216°
2026-04-22 13:33 37.92966 23.94633 295 ft 31 kts 217°
2026-04-22 13:33 37.92800 23.94476 297 ft 28 kts 218°
2026-04-22 13:33 37.92658 23.94340 298 ft 22 kts 217°
2026-04-22 13:33 37.92576 23.94278 297 ft 11 kts 178°
2026-04-22 13:34 37.92530 23.94336 302 ft 8 kts 125°
2026-04-22 13:34 37.92502 23.94384 302 ft 9 kts 130°
2026-04-22 13:34 37.92476 23.94444 302 ft 3 kts 53°
2026-04-22 13:34 37.92496 23.94463 302 ft 7 kts 37°
2026-04-22 13:35 37.92685 23.94642 297 ft 69 kts 37°
2026-04-22 13:35 37.93268 23.95195 284 ft 139 kts 36°
2026-04-22 13:35 37.94191 23.96088 482 ft 179 kts 39°
2026-04-22 13:35 37.95114 23.97005 1668 ft 163 kts 41°
2026-04-22 13:36 37.96107 23.98025 2046 ft 205 kts 41°
2026-04-22 13:36 37.97234 23.99271 3108 ft 225 kts 43°
2026-04-22 13:36 37.98506 24.00501 3855 ft 239 kts 36°
2026-04-22 13:36 37.99943 24.01689 4700 ft 250 kts 31°
2026-04-22 13:37 38.01491 24.03002 5009 ft 291 kts 34°
2026-04-22 13:37 38.03077 24.04595 6153 ft 285 kts 37°
2026-04-22 13:37 38.04654 24.06170 7234 ft 294 kts 33°
2026-04-22 13:37 38.06320 24.07732 8206 ft 299 kts 32°
2026-04-22 13:38 38.07990 24.09341 9255 ft 305 kts 34°
2026-04-22 13:38 38.10831 24.13573 11061 ft 317 kts 39°
2026-04-22 13:38 38.12467 24.15462 12012 ft 319 kts 36°
2026-04-22 13:39 38.14146 24.17348 12938 ft 323 kts 35°
2026-04-22 13:39 38.16080 24.18872 13361 ft 336 kts 15°
2026-04-22 13:39 38.18430 24.19350 13556 ft 352 kts 353°
2026-04-22 13:39 38.20851 24.18633 13777 ft 368 kts 332°
2026-04-22 13:40 38.22904 24.16745 14590 ft 363 kts 310°
2026-04-22 13:40 38.24252 24.14097 15535 ft 363 kts 291°
2026-04-22 13:40 38.24795 24.10962 16440 ft 366 kts 274°
2026-04-22 13:40 38.24652 24.07705 17332 ft 372 kts 263°
2026-04-22 13:41 38.24235 24.04434 18279 ft 375 kts 263°
2026-04-22 13:41 38.23818 24.01143 19086 ft 379 kts 263°
2026-04-22 13:41 38.23392 23.97807 19863 ft 384 kts 263°
2026-04-22 13:41 38.22941 23.94432 20662 ft 389 kts 262°
2026-04-22 13:42 38.22488 23.91066 21467 ft 393 kts 263°
2026-04-22 13:42 38.22047 23.87612 22269 ft 398 kts 263°
2026-04-22 13:42 38.21607 23.84108 23061 ft 403 kts 263°
2026-04-22 13:42 38.21144 23.80568 23787 ft 407 kts 263°
2026-04-22 13:43 38.20669 23.77007 24504 ft 411 kts 263°
2026-04-22 13:43 38.20200 23.73412 25276 ft 413 kts 263°
2026-04-22 13:43 38.19733 23.69808 26138 ft 414 kts 263°
2026-04-22 13:43 38.19254 23.66177 26907 ft 418 kts 263°
2026-04-22 13:44 38.18770 23.62517 27691 ft 422 kts 263°
2026-04-22 13:44 38.18282 23.58819 28481 ft 426 kts 262°
2026-04-22 13:44 38.17787 23.55087 29277 ft 430 kts 262°
2026-04-22 13:44 38.17288 23.51323 30060 ft 435 kts 262°
2026-04-22 13:45 38.16779 23.47512 30715 ft 439 kts 262°
2026-04-22 13:45 38.16269 23.43683 31405 ft 442 kts 263°
2026-04-22 13:45 38.15750 23.39812 32075 ft 445 kts 263°
2026-04-22 13:45 38.15226 23.35919 32722 ft 449 kts 263°
2026-04-22 13:46 38.14698 23.31988 33366 ft 453 kts 263°
2026-04-22 13:46 38.14171 23.28080 33987 ft 457 kts 263°
2026-04-22 13:46 38.13632 23.24086 34491 ft 461 kts 263°
2026-04-22 13:46 38.13074 23.19991 34970 ft 467 kts 263°
2026-04-22 13:47 38.12527 23.15958 35420 ft 472 kts 263°
2026-04-22 13:47 38.11964 23.11835 35852 ft 476 kts 263°
2026-04-22 13:47 38.11394 23.07664 36316 ft 479 kts 263°
2026-04-22 13:47 38.10830 23.03599 37825 ft 463 kts 263°
2026-04-22 13:48 38.10272 22.99521 37926 ft 471 kts 263°
2026-04-22 13:48 38.09714 22.95432 37932 ft 465 kts 263°
2026-04-22 13:48 38.08598 22.87398 37933 ft 465 kts 263°
2026-04-22 13:49 38.07859 22.79203 37937 ft 464 kts 271°
2026-04-22 13:49 38.08676 22.71167 37933 ft 458 kts 288°
2026-04-22 13:50 38.11646 22.64095 37947 ft 461 kts 303°
2026-04-22 13:50 38.15410 22.57473 37945 ft 463 kts 303°
2026-04-22 13:51 38.19141 22.50807 37945 ft 463 kts 303°
2026-04-22 13:51 38.22878 22.44147 37937 ft 462 kts 303°
2026-04-22 13:52 38.26599 22.37496 37938 ft 459 kts 303°
2026-04-22 13:52 38.30303 22.30858 37936 ft 460 kts 303°
2026-04-22 13:53 38.34005 22.24215 37938 ft 459 kts 303°
2026-04-22 13:53 38.37674 22.17615 37938 ft 459 kts 303°
2026-04-22 13:54 38.41367 22.10962 37944 ft 460 kts 303°
2026-04-22 13:54 38.45043 22.04321 37946 ft 457 kts 303°
2026-04-22 13:55 38.48718 21.97670 37949 ft 458 kts 303°
2026-04-22 13:55 38.52397 21.91000 37950 ft 458 kts 303°
2026-04-22 13:56 38.56063 21.84339 37951 ft 459 kts 303°
2026-04-22 13:56 38.59706 21.77702 37948 ft 460 kts 303°
2026-04-22 13:57 38.63367 21.71027 37947 ft 457 kts 302°
2026-04-22 13:57 38.67011 21.64363 37943 ft 457 kts 303°
2026-04-22 13:58 38.70656 21.57686 37940 ft 458 kts 302°
2026-04-22 13:58 38.74297 21.51001 37941 ft 457 kts 303°
2026-04-22 13:59 38.77933 21.44314 37945 ft 456 kts 303°
2026-04-22 13:59 38.81559 21.37629 37942 ft 457 kts 303°
2026-04-22 14:00 38.85196 21.30910 37953 ft 460 kts 302°
2026-04-22 14:00 38.88779 21.24280 37946 ft 455 kts 302°
2026-04-22 14:01 38.92396 21.17567 37950 ft 458 kts 302°
2026-04-22 14:01 38.96025 21.10825 37971 ft 457 kts 302°
2026-04-22 14:02 38.99621 21.04125 37972 ft 454 kts 302°
2026-04-22 14:02 39.03213 20.97422 37986 ft 455 kts 302°
2026-04-22 14:03 39.06804 20.90705 37976 ft 455 kts 302°
2026-04-22 14:03 39.10389 20.83985 37980 ft 456 kts 302°
2026-04-22 14:04 39.13974 20.77251 37982 ft 456 kts 302°
2026-04-22 14:04 39.17572 20.70477 37957 ft 460 kts 302°
2026-04-22 14:05 39.19355 20.67119 37952 ft 449 kts 302°
2026-04-22 14:05 39.21120 20.63789 37945 ft 450 kts 302°
2026-04-22 14:06 39.26437 20.53733 37945 ft 453 kts 302°
2026-04-22 14:06 39.29956 20.47059 37955 ft 452 kts 302°
2026-04-22 14:07 39.33486 20.40353 37955 ft 449 kts 302°
2026-04-22 14:07 39.36995 20.33668 37941 ft 450 kts 302°
2026-04-22 14:08 39.40509 20.26966 37953 ft 451 kts 302°
2026-04-22 14:08 39.44021 20.20249 37939 ft 451 kts 302°
2026-04-22 14:09 39.47530 20.13523 37929 ft 451 kts 302°
2026-04-22 14:09 39.51043 20.06784 37941 ft 452 kts 302°
2026-04-22 14:10 39.54561 20.00011 37938 ft 453 kts 302°
2026-04-22 14:10 39.58050 19.93284 37946 ft 453 kts 302°
2026-04-22 14:11 39.61565 19.86492 37966 ft 454 kts 302°
2026-04-22 14:11 39.65072 19.79695 37935 ft 452 kts 302°
2026-04-22 14:12 39.68571 19.72909 37930 ft 451 kts 302°
2026-04-22 14:12 39.72057 19.66129 37942 ft 452 kts 302°
2026-04-22 14:13 39.75551 19.59318 37948 ft 453 kts 302°
2026-04-22 14:13 39.79042 19.52499 37965 ft 453 kts 302°
2026-04-22 14:14 39.82508 19.45714 37953 ft 453 kts 302°
2026-04-22 14:14 39.85990 19.38885 37973 ft 452 kts 302°
2026-04-22 14:15 39.89465 19.32055 37958 ft 452 kts 301°
2026-04-22 14:15 39.92347 19.26375 37958 ft 452 kts 301°
2026-04-22 14:16 39.95822 19.19519 37973 ft 452 kts 301°
2026-04-22 14:16 39.99277 19.12683 37969 ft 451 kts 301°
2026-04-22 14:17 40.02732 19.05834 37976 ft 452 kts 301°
2026-04-22 14:17 40.06248 18.99029 37968 ft 453 kts 305°
2026-04-22 14:18 40.10175 18.92574 37983 ft 453 kts 305°
2026-04-22 14:18 40.14078 18.86074 37988 ft 455 kts 306°
2026-04-22 14:19 40.17999 18.79585 37991 ft 455 kts 306°
2026-04-22 14:19 40.21904 18.73080 37979 ft 455 kts 306°
2026-04-22 14:20 40.27757 18.63322 37989 ft 455 kts 306°
2026-04-22 14:20 40.31658 18.56799 37989 ft 455 kts 306°
2026-04-22 14:21 40.37520 18.46973 37997 ft 456 kts 305°
2026-04-22 14:22 40.43437 18.37017 37999 ft 476 kts 306°
2026-04-22 14:23 40.49567 18.26678 38004 ft 476 kts 306°
2026-04-22 14:23 40.53636 18.19792 38018 ft 478 kts 306°
2026-04-22 14:24 40.57712 18.12883 38019 ft 477 kts 306°
2026-04-22 14:24 40.61748 18.06022 38027 ft 476 kts 306°
2026-04-22 14:25 40.65813 17.99096 38027 ft 478 kts 306°
2026-04-22 14:25 40.69878 17.92160 38022 ft 478 kts 306°
2026-04-22 14:26 40.73929 17.85226 38021 ft 477 kts 306°
2026-04-22 14:26 40.77975 17.78290 37992 ft 476 kts 306°
2026-04-22 14:27 40.81985 17.71397 38007 ft 477 kts 306°
2026-04-22 14:27 40.86036 17.64419 38357 ft 478 kts 306°
2026-04-22 14:27 40.88055 17.60938 38665 ft 478 kts 306°
2026-04-22 14:28 40.90187 17.57595 39402 ft 470 kts 310°
2026-04-22 14:28 40.92369 17.54412 39987 ft 468 kts 309°
2026-04-22 14:28 40.94557 17.51154 39981 ft 478 kts 309°
2026-04-22 14:29 40.99037 17.44558 39990 ft 482 kts 310°
2026-04-22 14:29 41.03506 17.37959 39991 ft 480 kts 309°
2026-04-22 14:30 41.07942 17.31395 39990 ft 481 kts 309°
2026-04-22 14:30 41.12411 17.24766 40002 ft 481 kts 309°
2026-04-22 14:31 41.16879 17.18125 40006 ft 482 kts 309°
2026-04-22 14:31 41.21004 17.11135 40001 ft 480 kts 304°
2026-04-22 14:32 41.24989 17.04019 40008 ft 480 kts 304°
2026-04-22 14:32 41.28909 16.96894 39998 ft 481 kts 304°
2026-04-22 14:33 41.32878 16.89723 39999 ft 481 kts 304°
2026-04-22 14:33 41.36830 16.82536 40057 ft 481 kts 304°
2026-04-22 14:34 41.40790 16.75331 40029 ft 480 kts 304°
2026-04-22 14:34 41.44732 16.68138 40011 ft 480 kts 304°
2026-04-22 14:35 41.48648 16.60976 40001 ft 480 kts 304°
2026-04-22 14:35 41.52572 16.53783 40004 ft 479 kts 304°
2026-04-22 14:36 41.56487 16.46588 40001 ft 479 kts 304°
2026-04-22 14:36 41.60381 16.39414 40001 ft 479 kts 304°
2026-04-22 14:37 41.64291 16.32196 39997 ft 479 kts 304°
2026-04-22 14:37 41.68197 16.24969 39996 ft 478 kts 304°
2026-04-22 14:38 41.72093 16.17741 39998 ft 478 kts 304°
2026-04-22 14:38 41.75990 16.10496 39992 ft 478 kts 304°
2026-04-22 14:39 41.79874 16.03255 39997 ft 479 kts 304°
2026-04-22 14:39 41.83759 15.95997 39985 ft 479 kts 304°
2026-04-22 14:40 41.89585 15.85081 40046 ft 480 kts 304°
2026-04-22 14:40 41.93450 15.77830 40123 ft 480 kts 304°
2026-04-22 14:41 41.95464 15.74318 40051 ft 466 kts 306°
2026-04-22 14:41 41.97433 15.70905 40048 ft 460 kts 305°
2026-04-22 14:41 42.01326 15.64072 40015 ft 461 kts 305°
2026-04-22 14:42 42.05238 15.57230 40014 ft 462 kts 305°
2026-04-22 14:42 42.09143 15.50366 40003 ft 461 kts 305°
2026-04-22 14:43 42.13049 15.43491 39988 ft 461 kts 305°
2026-04-22 14:43 42.16942 15.36621 39987 ft 461 kts 305°
2026-04-22 14:44 42.20837 15.29735 39991 ft 462 kts 305°
2026-04-22 14:44 42.24714 15.22861 39987 ft 463 kts 305°
2026-04-22 14:45 42.28618 15.15925 39989 ft 464 kts 305°
2026-04-22 14:45 42.32523 15.08971 39991 ft 464 kts 305°
2026-04-22 14:46 42.36423 15.02012 39990 ft 464 kts 305°
2026-04-22 14:46 42.40317 14.95047 39987 ft 464 kts 305°
2026-04-22 14:47 42.44205 14.88073 39952 ft 464 kts 305°
2026-04-22 14:47 42.48098 14.81077 39960 ft 466 kts 305°
2026-04-22 14:48 42.52000 14.74048 39964 ft 468 kts 305°
2026-04-22 14:48 42.55909 14.66987 39967 ft 468 kts 305°
2026-04-22 14:49 42.59817 14.59915 39975 ft 468 kts 305°
2026-04-22 14:49 42.63724 14.52827 39989 ft 468 kts 305°
2026-04-22 14:50 42.67621 14.45740 39995 ft 468 kts 305°
2026-04-22 14:50 42.71491 14.38684 39992 ft 468 kts 305°
2026-04-22 14:51 42.75385 14.31568 39975 ft 470 kts 305°
2026-04-22 14:51 42.79290 14.24416 39961 ft 472 kts 305°
2026-04-22 14:52 42.83208 14.17221 39954 ft 472 kts 305°
2026-04-22 14:52 42.87161 14.10050 39954 ft 473 kts 306°
2026-04-22 14:53 42.91133 14.02872 39959 ft 474 kts 305°
2026-04-22 14:53 42.95089 13.95673 39958 ft 474 kts 306°
2026-04-22 14:54 42.99047 13.88471 39966 ft 474 kts 306°
2026-04-22 14:54 43.02981 13.81286 39954 ft 475 kts 306°
2026-04-22 14:55 43.06949 13.74026 39954 ft 477 kts 306°
2026-04-22 14:55 43.10916 13.66747 39957 ft 477 kts 306°
2026-04-22 14:56 43.14884 13.59453 39956 ft 477 kts 306°
2026-04-22 14:56 43.18841 13.52155 39958 ft 477 kts 306°
2026-04-22 14:57 43.22794 13.44854 39952 ft 477 kts 306°
2026-04-22 14:57 43.26742 13.37534 39960 ft 477 kts 306°
2026-04-22 14:58 43.30673 13.30236 39962 ft 479 kts 306°
2026-04-22 14:58 43.34629 13.22871 39961 ft 479 kts 306°
2026-04-22 14:59 43.38574 13.15503 39960 ft 478 kts 306°
2026-04-22 14:59 43.42514 13.08132 39950 ft 479 kts 306°
2026-04-22 15:00 43.45792 13.01984 39950 ft 479 kts 306°
2026-04-22 15:00 43.49726 12.94587 39967 ft 479 kts 306°
2026-04-22 15:01 43.53671 12.87155 39967 ft 481 kts 306°
2026-04-22 15:01 43.57618 12.79697 39971 ft 482 kts 306°
2026-04-22 15:02 43.61571 12.72207 39963 ft 482 kts 306°
2026-04-22 15:02 43.65493 12.64760 39965 ft 482 kts 306°
2026-04-22 15:03 43.69427 12.57271 39990 ft 481 kts 306°
2026-04-22 15:03 43.73357 12.49769 40015 ft 481 kts 306°
2026-04-22 15:04 43.77285 12.42252 40031 ft 483 kts 306°
2026-04-22 15:04 43.81245 12.34739 40026 ft 483 kts 307°
2026-04-22 15:05 43.85256 12.27282 40020 ft 483 kts 306°
2026-04-22 15:05 43.89221 12.19781 40006 ft 482 kts 307°
2026-04-22 15:06 43.93204 12.12289 40041 ft 482 kts 306°
2026-04-22 15:06 43.97173 12.04770 40071 ft 482 kts 306°
2026-04-22 15:07 44.01117 11.97299 40099 ft 482 kts 307°
2026-04-22 15:07 44.05082 11.89758 40104 ft 483 kts 307°
2026-04-22 15:08 44.09045 11.82207 40094 ft 483 kts 307°
2026-04-22 15:08 44.12998 11.74652 40074 ft 483 kts 307°
2026-04-22 15:09 44.16928 11.67120 40028 ft 483 kts 306°
2026-04-22 15:09 44.20874 11.59544 40000 ft 482 kts 306°
2026-04-22 15:10 44.24804 11.51971 39986 ft 481 kts 306°
2026-04-22 15:10 44.28728 11.44396 39992 ft 482 kts 306°
2026-04-22 15:11 44.32647 11.36810 40084 ft 482 kts 306°
2026-04-22 15:11 44.36569 11.29197 40136 ft 482 kts 306°
2026-04-22 15:12 44.40478 11.21589 40161 ft 481 kts 306°
2026-04-22 15:12 44.44376 11.13983 40160 ft 481 kts 306°
2026-04-22 15:13 44.48273 11.06358 40165 ft 482 kts 306°
2026-04-22 15:13 44.52160 10.98734 40165 ft 484 kts 306°
2026-04-22 15:14 44.55987 10.90973 40176 ft 484 kts 304°
2026-04-22 15:14 44.59784 10.83179 40163 ft 483 kts 306°
2026-04-22 15:15 44.63598 10.75392 40165 ft 483 kts 305°
2026-04-22 15:15 44.67387 10.67596 40170 ft 483 kts 305°
2026-04-22 15:16 44.71183 10.59786 40167 ft 483 kts 305°
2026-04-22 15:16 44.74949 10.52008 40168 ft 483 kts 305°
2026-04-22 15:17 44.78733 10.44172 40166 ft 484 kts 305°
2026-04-22 15:17 44.82512 10.36328 40162 ft 484 kts 305°
2026-04-22 15:18 44.86286 10.28472 40153 ft 484 kts 305°
2026-04-22 15:18 44.90056 10.20600 40154 ft 483 kts 305°
2026-04-22 15:19 44.93808 10.12747 40164 ft 482 kts 305°
2026-04-22 15:19 44.97559 10.04872 40158 ft 484 kts 305°
2026-04-22 15:20 45.01290 9.97019 40134 ft 484 kts 305°
2026-04-22 15:20 45.05027 9.89130 40139 ft 482 kts 305°
2026-04-22 15:21 45.08753 9.81248 40137 ft 482 kts 304°
2026-04-22 15:21 45.12476 9.73344 40141 ft 482 kts 304°
2026-04-22 15:22 45.16201 9.65418 40141 ft 482 kts 304°
2026-04-22 15:22 45.19675 9.57290 40144 ft 483 kts 300°
2026-04-22 15:23 45.22959 9.49031 40148 ft 485 kts 301°
2026-04-22 15:23 45.26242 9.40664 40159 ft 485 kts 300°
2026-04-22 15:24 45.29534 9.32293 40164 ft 485 kts 301°
2026-04-22 15:24 45.32809 9.23916 40154 ft 484 kts 300°
2026-04-22 15:25 45.36074 9.15551 40154 ft 483 kts 300°
2026-04-22 15:25 45.37707 9.11359 39995 ft 483 kts 299°
2026-04-22 15:25 45.39348 9.07136 39999 ft 489 kts 300°
2026-04-22 15:26 45.40970 9.02950 40017 ft 478 kts 300°
2026-04-22 15:26 45.42554 8.98866 40045 ft 477 kts 300°
2026-04-22 15:26 45.45766 8.90561 40014 ft 480 kts 300°
2026-04-22 15:27 45.48983 8.82214 39962 ft 481 kts 300°
2026-04-22 15:27 45.52200 8.73848 39941 ft 481 kts 300°
2026-04-22 15:28 45.55408 8.65472 39940 ft 481 kts 300°
2026-04-22 15:28 45.58609 8.57093 39940 ft 481 kts 300°
2026-04-22 15:29 45.61804 8.48704 39989 ft 480 kts 300°
2026-04-22 15:30 45.66045 8.37528 40160 ft 480 kts 300°
2026-04-22 15:30 45.69763 8.27691 40168 ft 482 kts 300°
2026-04-22 15:31 45.72945 8.19246 40156 ft 482 kts 300°
2026-04-22 15:31 45.76126 8.10778 40164 ft 483 kts 300°
2026-04-22 15:32 45.79286 8.02333 40157 ft 484 kts 300°
2026-04-22 15:32 45.82462 7.93829 40157 ft 483 kts 300°
2026-04-22 15:33 45.85630 7.85312 40148 ft 483 kts 300°
2026-04-22 15:33 45.88794 7.76781 40143 ft 484 kts 300°
2026-04-22 15:34 45.91951 7.68253 40143 ft 483 kts 300°
2026-04-22 15:34 45.95081 7.59748 40129 ft 485 kts 299°
2026-04-22 15:35 45.97991 7.52794 40118 ft 485 kts 307°
2026-04-22 15:35 46.02869 7.43965 40020 ft 484 kts 309°
2026-04-22 15:36 46.07057 7.36375 39982 ft 484 kts 309°
2026-04-22 15:36 46.11253 7.28775 39959 ft 485 kts 309°
2026-04-22 15:37 46.15443 7.21152 39948 ft 485 kts 309°
2026-04-22 15:37 46.19627 7.13530 39972 ft 483 kts 309°
2026-04-22 15:38 46.23790 7.05912 40002 ft 484 kts 309°
2026-04-22 15:38 46.30052 6.94429 40053 ft 485 kts 309°
2026-04-22 15:39 46.34217 6.86763 40089 ft 484 kts 309°
2026-04-22 15:39 46.38370 6.79094 40093 ft 484 kts 309°
2026-04-22 15:40 46.42221 6.71161 40102 ft 486 kts 301°
2026-04-22 15:40 46.44810 6.62087 40106 ft 490 kts 288°
2026-04-22 15:41 46.46222 6.52393 40104 ft 490 kts 289°
2026-04-22 15:41 46.48760 6.43281 40106 ft 486 kts 300°
2026-04-22 15:42 46.52632 6.35284 40120 ft 484 kts 312°
2026-04-22 15:42 46.57082 6.27926 40114 ft 485 kts 311°
2026-04-22 15:43 46.61524 6.20540 40117 ft 485 kts 312°
2026-04-22 15:43 46.65962 6.13154 40111 ft 484 kts 311°
2026-04-22 15:44 46.70406 6.05768 40104 ft 484 kts 312°
2026-04-22 15:44 46.74818 5.98418 40096 ft 485 kts 311°
2026-04-22 15:45 46.79180 5.90902 40096 ft 485 kts 311°
2026-04-22 15:45 46.83575 5.83441 40100 ft 485 kts 311°
2026-04-22 15:46 46.87951 5.75920 40100 ft 486 kts 311°
2026-04-22 15:46 46.91608 5.69654 40088 ft 486 kts 311°
2026-04-22 15:47 46.95980 5.62119 40035 ft 485 kts 311°
2026-04-22 15:47 47.01052 5.53364 40017 ft 485 kts 311°
2026-04-22 15:48 47.04705 5.47034 40017 ft 485 kts 311°
2026-04-22 15:48 47.09042 5.39509 40029 ft 487 kts 311°
2026-04-22 15:49 47.13416 5.31894 40071 ft 488 kts 311°
2026-04-22 15:49 47.17783 5.24271 40056 ft 486 kts 311°
2026-04-22 15:50 47.22139 5.16646 40045 ft 487 kts 310°
2026-04-22 15:50 47.26489 5.09009 40047 ft 487 kts 310°
2026-04-22 15:51 47.30837 5.01355 40056 ft 488 kts 310°
2026-04-22 15:51 47.35192 4.93666 40059 ft 489 kts 310°
2026-04-22 15:52 47.39522 4.86000 40086 ft 488 kts 310°
2026-04-22 15:52 47.43861 4.78295 40103 ft 488 kts 310°
2026-04-22 15:53 47.48198 4.70574 40127 ft 488 kts 310°
2026-04-22 15:53 47.52529 4.62841 40136 ft 489 kts 310°
2026-04-22 15:54 47.56873 4.55061 40129 ft 490 kts 310°
2026-04-22 15:54 47.61215 4.47265 40136 ft 490 kts 310°
2026-04-22 15:55 47.65544 4.39468 40146 ft 489 kts 310°
2026-04-22 15:55 47.67704 4.35568 39470 ft 489 kts 309°
2026-04-22 15:55 47.69875 4.31645 40148 ft 493 kts 310°
2026-04-22 15:56 47.74132 4.23933 40146 ft 484 kts 310°
2026-04-22 15:56 47.76267 4.20057 40335 ft 486 kts 309°
2026-04-22 15:56 47.78413 4.16159 40207 ft 487 kts 308°
2026-04-22 15:57 47.82666 4.08406 40149 ft 481 kts 308°
2026-04-22 15:57 47.86900 4.00671 40150 ft 483 kts 308°
2026-04-22 15:58 47.91137 3.92908 40158 ft 483 kts 308°
2026-04-22 15:58 47.95370 3.85130 40166 ft 483 kts 308°
2026-04-22 15:59 47.99578 3.77377 40159 ft 484 kts 308°
2026-04-22 15:59 48.03820 3.69537 40159 ft 485 kts 308°
2026-04-22 16:00 48.08060 3.61678 40163 ft 485 kts 308°
2026-04-22 16:00 48.12295 3.53803 40171 ft 485 kts 308°
2026-04-22 16:01 48.16491 3.45980 40166 ft 485 kts 308°
2026-04-22 16:01 48.20729 3.38056 40166 ft 486 kts 308°
2026-04-22 16:02 48.24958 3.30126 40164 ft 487 kts 308°
2026-04-22 16:02 48.29182 3.22180 40167 ft 486 kts 308°
2026-04-22 16:03 48.33401 3.14222 40163 ft 486 kts 308°
2026-04-22 16:03 48.37591 3.06294 40178 ft 487 kts 308°
2026-04-22 16:04 48.41383 2.97888 40179 ft 486 kts 298°
2026-04-22 16:04 48.43808 2.88356 40186 ft 489 kts 287°
2026-04-22 16:05 48.45702 2.78507 40196 ft 490 kts 287°
2026-04-22 16:05 48.47582 2.68620 40194 ft 490 kts 287°
2026-04-22 16:06 48.49461 2.58730 40181 ft 490 kts 287°
2026-04-22 16:06 48.51325 2.48847 40182 ft 490 kts 287°
2026-04-22 16:07 48.53185 2.38945 40194 ft 490 kts 287°
2026-04-22 16:07 48.55022 2.29102 40203 ft 490 kts 287°
2026-04-22 16:08 48.56858 2.19165 40171 ft 491 kts 285°
2026-04-22 16:08 48.58277 2.09082 40182 ft 491 kts 283°
2026-04-22 16:09 48.59706 1.99047 40179 ft 492 kts 283°
2026-04-22 16:09 48.61109 1.88890 40184 ft 494 kts 283°
2026-04-22 16:10 48.62505 1.78844 40169 ft 487 kts 283°
2026-04-22 16:10 48.63882 1.68801 40171 ft 488 kts 283°
2026-04-22 16:11 48.65249 1.58778 40188 ft 490 kts 283°
2026-04-22 16:11 48.66607 1.48679 40190 ft 490 kts 283°
2026-04-22 16:12 48.67963 1.38565 40186 ft 490 kts 282°
2026-04-22 16:12 48.69307 1.28456 40179 ft 490 kts 282°
2026-04-22 16:13 48.70643 1.18332 40183 ft 491 kts 282°
2026-04-22 16:13 48.71976 1.08170 40183 ft 492 kts 282°
2026-04-22 16:14 48.73291 0.98068 40183 ft 492 kts 282°
2026-04-22 16:14 48.74605 0.87897 40183 ft 492 kts 282°
2026-04-22 16:15 48.75918 0.77728 40173 ft 492 kts 282°
2026-04-22 16:15 48.77222 0.67537 40166 ft 492 kts 282°
2026-04-22 16:16 48.78516 0.57345 40170 ft 492 kts 282°
2026-04-22 16:16 48.80123 0.47283 40169 ft 491 kts 287°
2026-04-22 16:17 48.81900 0.37339 40165 ft 492 kts 286°
2026-04-22 16:17 48.83719 0.27310 40165 ft 493 kts 286°
2026-04-22 16:18 48.85514 0.17252 40162 ft 493 kts 286°
2026-04-22 16:18 48.87305 0.07213 40161 ft 493 kts 286°
2026-04-22 16:19 48.89085 -0.02846 40027 ft 491 kts 285°
2026-04-22 16:19 48.89967 -0.07853 40133 ft 490 kts 285°
2026-04-22 16:19 48.90851 -0.12875 40138 ft 494 kts 285°
2026-04-22 16:20 48.92625 -0.23001 40154 ft 495 kts 285°
2026-04-22 16:20 48.94362 -0.33137 40161 ft 494 kts 285°
2026-04-22 16:21 48.96049 -0.43213 40164 ft 495 kts 285°
2026-04-22 16:21 48.97761 -0.53373 40164 ft 496 kts 285°
2026-04-22 16:22 49.00297 -0.68616 40159 ft 495 kts 285°
2026-04-22 16:23 49.02814 -0.83884 40146 ft 496 kts 284°
2026-04-22 16:23 49.04485 -0.94079 40131 ft 494 kts 284°
2026-04-22 16:24 49.06967 -1.09352 40134 ft 495 kts 284°
2026-04-22 16:25 49.08610 -1.19540 40151 ft 495 kts 284°
2026-04-22 16:25 49.11097 -1.34855 40139 ft 496 kts 284°
2026-04-22 16:26 49.12741 -1.45103 40135 ft 497 kts 284°
2026-04-22 16:26 49.14372 -1.55289 40134 ft 496 kts 284°
2026-04-22 16:27 49.15998 -1.65537 40132 ft 497 kts 284°
2026-04-22 16:27 49.17620 -1.75812 40139 ft 497 kts 284°
2026-04-22 16:28 49.19231 -1.86082 40134 ft 497 kts 283°
2026-04-22 16:28 49.20836 -1.96376 40147 ft 498 kts 283°
2026-04-22 16:29 49.22688 -2.06574 40141 ft 497 kts 291°
2026-04-22 16:29 49.25450 -2.16301 40155 ft 498 kts 293°
2026-04-22 16:30 49.28186 -2.25978 40159 ft 498 kts 292°
2026-04-22 16:30 49.30945 -2.35721 40159 ft 498 kts 292°
2026-04-22 16:31 49.33688 -2.45471 40164 ft 499 kts 292°
2026-04-22 16:31 49.36430 -2.55249 40165 ft 499 kts 292°
2026-04-22 16:32 49.39161 -2.65037 40165 ft 499 kts 292°
2026-04-22 16:32 49.41883 -2.74825 40166 ft 498 kts 292°
2026-04-22 16:33 49.44137 -2.82967 40167 ft 498 kts 292°
2026-04-22 16:33 49.46844 -2.92777 40164 ft 498 kts 291°
2026-04-22 16:34 49.49544 -3.02601 40170 ft 498 kts 291°
2026-04-22 16:34 49.52224 -3.12397 40171 ft 495 kts 291°
2026-04-22 16:35 49.54881 -3.22151 40163 ft 496 kts 291°
2026-04-22 16:35 49.57529 -3.31910 40171 ft 497 kts 291°
2026-04-22 16:36 49.60196 -3.41783 40169 ft 499 kts 291°
2026-04-22 16:36 49.62845 -3.51627 40167 ft 496 kts 291°
2026-04-22 16:37 49.65480 -3.61465 40177 ft 496 kts 290°
2026-04-22 16:37 49.68111 -3.71327 40172 ft 498 kts 290°
2026-04-22 16:38 49.71025 -3.81049 40167 ft 499 kts 296°
2026-04-22 16:38 49.74202 -3.90611 40175 ft 501 kts 295°
2026-04-22 16:39 49.77391 -4.00167 40178 ft 501 kts 295°
2026-04-22 16:39 49.80549 -4.09707 40173 ft 498 kts 294°
2026-04-22 16:40 49.83725 -4.19323 40180 ft 503 kts 294°
2026-04-22 16:41 49.88458 -4.33726 40170 ft 498 kts 294°
2026-04-22 16:41 49.91605 -4.43338 40176 ft 501 kts 294°
2026-04-22 16:42 49.94762 -4.53027 40181 ft 501 kts 294°
2026-04-22 16:42 49.97872 -4.62610 40179 ft 503 kts 294°
2026-04-22 16:43 50.01020 -4.72345 40195 ft 503 kts 294°
2026-04-22 16:43 50.04159 -4.82089 40198 ft 503 kts 293°
2026-04-22 16:44 50.07282 -4.91824 40194 ft 503 kts 294°
2026-04-22 16:44 50.10401 -5.01582 40192 ft 503 kts 293°
2026-04-22 16:45 50.13504 -5.11332 40193 ft 501 kts 293°
2026-04-22 16:45 50.16603 -5.21104 40183 ft 503 kts 293°
2026-04-22 16:46 50.19678 -5.30841 40194 ft 503 kts 293°
2026-04-22 16:46 50.22763 -5.40646 40178 ft 504 kts 293°
2026-04-22 16:47 50.25855 -5.50515 40184 ft 504 kts 293°
2026-04-22 16:47 50.28932 -5.60375 40181 ft 505 kts 293°
2026-04-22 16:48 50.32008 -5.70270 40171 ft 507 kts 293°
2026-04-22 16:48 50.35084 -5.80204 40179 ft 507 kts 293°
2026-04-22 16:49 50.38145 -5.90132 40188 ft 506 kts 293°
2026-04-22 16:49 50.41185 -6.00032 40189 ft 507 kts 293°
2026-04-22 16:50 50.44238 -6.10012 40183 ft 508 kts 292°
2026-04-22 16:50 50.47290 -6.20034 40184 ft 509 kts 292°
2026-04-22 16:51 50.50338 -6.30082 40185 ft 509 kts 292°
2026-04-22 16:51 50.53375 -6.40137 40180 ft 509 kts 292°
2026-04-22 16:52 50.56408 -6.50218 40180 ft 509 kts 292°
2026-04-22 16:52 50.59410 -6.60238 40175 ft 510 kts 292°
2026-04-22 16:53 50.62434 -6.70370 40181 ft 511 kts 292°
2026-04-22 16:53 50.65449 -6.80521 40177 ft 511 kts 292°
2026-04-22 16:54 50.68458 -6.90691 40185 ft 511 kts 292°
2026-04-22 16:54 50.71456 -7.00868 40181 ft 512 kts 291°
2026-04-22 16:55 50.74452 -7.11083 40177 ft 513 kts 291°
2026-04-22 16:55 50.77448 -7.21338 40179 ft 514 kts 291°
2026-04-22 16:56 50.80432 -7.31596 40183 ft 514 kts 291°
2026-04-22 16:56 50.83392 -7.41814 40178 ft 514 kts 291°
2026-04-22 16:57 50.86361 -7.52112 40177 ft 514 kts 291°
2026-04-22 16:57 50.89326 -7.62440 40170 ft 516 kts 290°
2026-04-22 16:58 50.91791 -7.71061 40174 ft 517 kts 290°
2026-04-22 16:58 50.95252 -7.83212 40173 ft 517 kts 290°
2026-04-22 16:59 50.98170 -7.93652 40168 ft 515 kts 287°
2026-04-22 16:59 50.99826 -8.04500 40159 ft 507 kts 273°
2026-04-22 17:00 50.99997 -8.15628 40148 ft 505 kts 266°
2026-04-22 17:00 51.00715 -8.32399 40155 ft 511 kts 275°
2026-04-22 17:01 51.01752 -8.43558 40150 ft 511 kts 274°
2026-04-22 17:01 51.02806 -8.54742 40164 ft 512 kts 274°
2026-04-22 17:02 51.03836 -8.65966 40140 ft 515 kts 274°
2026-04-22 17:02 51.04351 -8.71546 40535 ft 507 kts 274°
2026-04-22 17:02 51.04857 -8.77076 40870 ft 506 kts 274°
2026-04-22 17:03 51.05349 -8.82545 41172 ft 506 kts 274°
2026-04-22 17:03 51.05847 -8.88091 41450 ft 506 kts 274°
2026-04-22 17:03 51.06346 -8.93628 41708 ft 507 kts 274°
2026-04-22 17:03 51.06841 -8.99181 41943 ft 508 kts 274°
2026-04-22 17:04 51.07333 -9.04742 42169 ft 509 kts 274°
2026-04-22 17:04 51.07825 -9.10331 42324 ft 511 kts 274°
2026-04-22 17:04 51.08318 -9.15940 42578 ft 510 kts 274°
2026-04-22 17:04 51.08807 -9.21539 42774 ft 511 kts 274°
2026-04-22 17:05 51.09292 -9.27156 42963 ft 512 kts 275°
2026-04-22 17:05 51.09776 -9.32777 43120 ft 514 kts 274°
2026-04-22 17:05 51.10741 -9.44079 43117 ft 522 kts 275°
2026-04-22 17:06 51.11716 -9.55626 43110 ft 531 kts 274°
2026-04-22 17:06 51.12695 -9.67378 43114 ft 539 kts 274°
2026-04-22 17:07 51.13678 -9.79307 43121 ft 547 kts 275°
2026-04-22 17:07 51.14662 -9.91408 43104 ft 554 kts 274°
2026-04-22 17:08 51.15637 -10.03570 43106 ft 560 kts 274°
2026-04-22 17:08 51.16612 -10.15859 43079 ft 547 kts 273°
2026-04-22 17:09 51.17080 -10.21780 43076 ft 530 kts 274°
2026-04-22 17:09 51.17527 -10.27564 43082 ft 524 kts 274°
2026-04-22 17:09 51.18410 -10.39080 43071 ft 524 kts 273°
2026-04-22 17:10 51.19289 -10.50609 43076 ft 524 kts 274°
2026-04-22 17:10 51.20154 -10.62156 43075 ft 524 kts 272°
2026-04-22 17:11 51.21062 -10.73698 43054 ft 526 kts 277°
2026-04-22 17:11 51.22504 -10.85081 43078 ft 527 kts 277°
2026-04-22 17:12 51.23897 -10.96601 43062 ft 528 kts 278°
2026-04-22 17:12 51.25321 -11.08106 43057 ft 528 kts 277°
2026-04-22 17:13 51.26705 -11.19615 43047 ft 527 kts 277°
2026-04-22 17:13 51.28093 -11.31113 43048 ft 528 kts 277°
2026-04-22 17:14 51.29462 -11.42646 43041 ft 528 kts 277°
2026-04-22 17:14 51.30821 -11.54125 43043 ft 529 kts 277°
2026-04-22 17:15 51.32171 -11.65691 43035 ft 529 kts 277°
2026-04-22 17:15 51.33512 -11.77241 43023 ft 530 kts 276°
2026-04-22 17:16 51.34845 -11.88850 43025 ft 530 kts 277°
2026-04-22 17:16 51.36167 -12.00459 43016 ft 530 kts 276°
2026-04-22 17:17 51.37475 -12.12065 43009 ft 530 kts 276°
2026-04-22 17:17 51.38774 -12.23685 42999 ft 530 kts 276°
2026-04-22 17:18 51.40061 -12.35317 42991 ft 531 kts 276°
2026-04-22 17:18 51.41331 -12.46906 42990 ft 532 kts 277°
2026-04-22 17:19 51.42565 -12.70411 42993 ft 530 kts 271°
2026-04-22 17:20 51.43529 -12.94014 42978 ft 531 kts 270°
2026-04-22 17:21 51.44143 -13.09734 42959 ft 531 kts 270°
2026-04-22 17:22 51.44824 -13.27489 42957 ft 532 kts 269°
2026-04-22 17:23 51.45475 -13.45267 42951 ft 533 kts 269°
2026-04-22 17:23 51.46099 -13.63061 42940 ft 533 kts 270°
2026-04-22 17:24 51.46499 -13.74865 42939 ft 533 kts 270°
2026-04-22 17:24 51.46889 -13.86747 42934 ft 534 kts 269°
2026-04-22 17:25 51.47268 -13.98671 42924 ft 536 kts 269°
2026-04-22 17:25 51.47636 -14.10625 42918 ft 537 kts 270°
2026-04-22 17:26 51.47992 -14.22596 42911 ft 538 kts 269°
2026-04-22 17:26 51.48167 -14.28600 42211 ft 537 kts 271°
2026-04-22 17:26 51.48338 -14.34582 42904 ft 537 kts 269°
2026-04-22 17:27 51.48664 -14.46354 42894 ft 530 kts 269°
2026-04-22 17:27 51.48979 -14.58191 42909 ft 530 kts 269°
2026-04-22 17:28 51.49285 -14.70064 42901 ft 533 kts 269°
2026-04-22 17:28 51.49579 -14.81963 42904 ft 533 kts 269°
2026-04-22 17:29 51.49859 -14.93792 42907 ft 533 kts 269°
2026-04-22 17:29 51.50692 -15.05645 42900 ft 538 kts 278°
2026-04-22 17:30 51.52125 -15.17459 42892 ft 538 kts 278°
2026-04-22 17:30 51.53550 -15.29279 42887 ft 539 kts 278°
2026-04-22 17:31 51.54965 -15.41148 42879 ft 542 kts 277°
2026-04-22 17:31 51.56372 -15.53046 42882 ft 541 kts 277°
2026-04-22 17:32 51.57765 -15.64937 42865 ft 542 kts 278°
2026-04-22 17:32 51.59152 -15.76898 42877 ft 544 kts 278°
2026-04-22 17:33 51.60527 -15.88851 42865 ft 543 kts 277°
2026-04-22 17:33 51.61883 -16.00770 42874 ft 545 kts 278°
2026-04-22 17:34 51.63238 -16.12768 42865 ft 544 kts 277°
2026-04-22 17:34 51.64580 -16.24797 42854 ft 548 kts 278°
2026-04-22 17:35 51.65922 -16.36918 42863 ft 549 kts 277°
2026-04-22 17:35 51.67249 -16.49042 42844 ft 550 kts 277°
2026-04-22 17:36 51.68570 -16.61222 42857 ft 551 kts 278°
2026-04-22 17:36 51.69864 -16.73282 42843 ft 550 kts 277°
2026-04-22 17:37 51.71161 -16.85496 42851 ft 554 kts 277°
2026-04-22 17:37 51.72447 -16.97713 42838 ft 552 kts 277°
2026-04-22 17:38 51.73718 -17.09942 42842 ft 553 kts 277°
2026-04-22 17:38 51.74979 -17.22177 42846 ft 552 kts 277°
2026-04-22 17:39 51.76231 -17.34487 42825 ft 558 kts 277°
2026-04-22 17:40 51.78093 -17.53006 42827 ft 555 kts 277°
2026-04-22 17:40 51.79317 -17.65373 42819 ft 559 kts 276°
2026-04-22 17:41 51.80531 -17.77748 42830 ft 556 kts 277°
2026-04-22 17:41 51.81723 -17.90065 42814 ft 562 kts 277°
2026-04-22 17:42 51.82918 -18.02517 42812 ft 557 kts 276°
2026-04-22 17:42 51.84090 -18.14919 42801 ft 560 kts 276°
2026-04-22 17:43 51.85260 -18.27400 42813 ft 560 kts 276°
2026-04-22 17:43 51.86413 -18.39892 42808 ft 566 kts 276°
2026-04-22 17:44 51.87568 -18.52514 42809 ft 564 kts 277°
2026-04-22 17:44 51.88690 -18.64960 42785 ft 564 kts 276°
2026-04-22 17:45 51.89816 -18.77583 42812 ft 564 kts 276°
2026-04-22 17:45 51.90920 -18.90126 42797 ft 564 kts 276°
2026-04-22 17:46 51.92022 -19.02806 42811 ft 568 kts 277°
2026-04-22 17:46 51.93102 -19.15374 42782 ft 564 kts 275°
2026-04-22 17:47 51.94173 -19.28045 42798 ft 568 kts 276°
2026-04-22 17:47 51.95230 -19.40657 42798 ft 563 kts 275°
2026-04-22 17:48 51.96098 -19.51211 42800 ft 570 kts 276°
2026-04-22 17:48 51.97300 -19.65917 42776 ft 564 kts 276°
2026-04-22 17:49 51.98315 -19.78598 42785 ft 568 kts 276°
2026-04-22 17:49 51.99317 -19.91227 42767 ft 563 kts 275°
2026-04-22 17:50 52.00186 -20.03891 42776 ft 559 kts 274°
2026-04-22 17:50 52.00671 -20.16384 42774 ft 554 kts 274°
2026-04-22 17:51 52.01204 -20.28954 42795 ft 558 kts 274°
2026-04-22 17:51 52.01683 -20.41464 42773 ft 556 kts 274°
2026-04-22 17:52 52.02173 -20.54026 42788 ft 555 kts 274°
2026-04-22 17:52 52.02635 -20.66524 42782 ft 557 kts 274°
2026-04-22 17:53 52.03092 -20.79087 42792 ft 555 kts 274°
2026-04-22 17:53 52.03532 -20.91629 42780 ft 559 kts 274°
2026-04-22 17:54 52.03960 -21.04190 42783 ft 555 kts 274°
2026-04-22 17:54 52.04374 -21.16693 42792 ft 559 kts 274°
2026-04-22 17:55 52.04710 -21.27213 42773 ft 554 kts 274°
2026-04-22 17:55 52.05164 -21.41838 42786 ft 559 kts 273°
2026-04-22 17:56 52.05539 -21.54431 42776 ft 560 kts 273°
2026-04-22 17:56 52.05903 -21.67098 42793 ft 559 kts 273°
2026-04-22 17:57 52.06253 -21.79718 42784 ft 561 kts 273°
2026-04-22 17:57 52.06588 -21.92344 42779 ft 556 kts 273°
2026-04-22 17:58 52.06911 -22.04969 42791 ft 561 kts 273°
2026-04-22 17:58 52.07216 -22.17501 42787 ft 558 kts 273°
2026-04-22 17:59 52.07514 -22.30182 42796 ft 560 kts 273°
2026-04-22 17:59 52.07796 -22.42839 42782 ft 560 kts 273°
2026-04-22 18:00 52.08021 -22.53368 42801 ft 559 kts 272°
2026-04-22 18:00 52.08319 -22.68080 42796 ft 562 kts 273°
2026-04-22 18:01 52.08560 -22.80744 42797 ft 558 kts 273°
2026-04-22 18:01 52.08790 -22.93441 42821 ft 563 kts 272°
2026-04-22 18:02 52.09004 -23.06104 42800 ft 561 kts 272°
2026-04-22 18:02 52.09205 -23.18798 42811 ft 558 kts 272°
2026-04-22 18:03 52.09393 -23.31448 42811 ft 561 kts 272°
2026-04-22 18:03 52.09566 -23.44110 42822 ft 558 kts 272°
2026-04-22 18:04 52.09728 -23.56799 42830 ft 562 kts 272°
2026-04-22 18:04 52.09873 -23.69463 42811 ft 560 kts 272°
2026-04-22 18:05 52.10008 -23.82156 42836 ft 558 kts 272°
2026-04-22 18:05 52.10126 -23.94698 42840 ft 560 kts 272°
2026-04-22 18:06 52.10231 -24.07349 42847 ft 558 kts 272°
2026-04-22 18:06 52.10324 -24.20026 42848 ft 561 kts 272°
2026-04-22 18:07 52.10390 -24.30633 42843 ft 559 kts 272°
2026-04-22 18:07 52.10459 -24.43232 42149 ft 558 kts 271°
2026-04-22 18:07 52.10486 -24.49547 42861 ft 555 kts 271°
2026-04-22 18:08 52.10511 -24.55803 42860 ft 553 kts 271°
2026-04-22 18:08 52.10552 -24.68301 42861 ft 551 kts 271°
2026-04-22 18:09 52.10579 -24.80830 42877 ft 554 kts 271°
2026-04-22 18:09 52.10593 -24.93265 42870 ft 553 kts 271°
2026-04-22 18:10 52.10593 -25.05798 42889 ft 553 kts 271°
2026-04-22 18:10 52.10580 -25.18318 42880 ft 554 kts 271°
2026-04-22 18:11 52.10554 -25.30856 42904 ft 553 kts 271°
2026-04-22 18:11 52.10536 -25.37114 43110 ft 555 kts 271°
2026-04-22 18:11 52.10515 -25.43400 42165 ft 554 kts 270°
2026-04-22 18:11 52.10490 -25.49674 43115 ft 554 kts 271°
2026-04-22 18:12 52.10462 -25.55855 43101 ft 553 kts 271°
2026-04-22 18:12 52.10397 -25.68379 43107 ft 552 kts 271°
2026-04-22 18:13 52.10318 -25.80870 43113 ft 553 kts 271°
2026-04-22 18:13 52.10225 -25.93382 43113 ft 552 kts 271°
2026-04-22 18:14 52.10120 -26.05909 43124 ft 554 kts 270°
2026-04-22 18:14 52.10001 -26.18470 43132 ft 556 kts 270°
2026-04-22 18:15 52.09869 -26.30958 43133 ft 555 kts 270°
2026-04-22 18:15 52.09723 -26.43533 43136 ft 556 kts 270°
2026-04-22 18:16 52.09563 -26.56082 43115 ft 556 kts 270°
2026-04-22 18:16 52.09391 -26.68667 43143 ft 555 kts 270°
2026-04-22 18:17 52.09204 -26.81264 43146 ft 557 kts 270°
2026-04-22 18:17 52.09006 -26.93758 43140 ft 556 kts 270°
2026-04-22 18:18 52.08793 -27.06342 43144 ft 555 kts 270°
2026-04-22 18:18 52.08567 -27.18886 43146 ft 555 kts 270°
2026-04-22 18:19 52.08328 -27.31421 43144 ft 554 kts 270°
2026-04-22 18:19 52.08076 -27.43949 43148 ft 554 kts 270°
2026-04-22 18:20 52.07811 -27.56472 43152 ft 555 kts 270°
2026-04-22 18:20 52.07532 -27.68997 43153 ft 553 kts 270°
2026-04-22 18:21 52.07243 -27.81423 43156 ft 554 kts 270°
2026-04-22 18:21 52.06937 -27.93943 43152 ft 554 kts 270°
2026-04-22 18:22 52.06619 -28.06465 43156 ft 554 kts 270°
2026-04-22 18:22 52.06288 -28.18964 43167 ft 553 kts 269°
2026-04-22 18:23 52.05944 -28.31447 43170 ft 552 kts 269°
2026-04-22 18:23 52.05587 -28.43920 43169 ft 552 kts 269°
2026-04-22 18:24 52.05031 -28.62525 43172 ft 552 kts 269°
2026-04-22 18:25 52.04441 -28.81217 43170 ft 551 kts 269°
2026-04-22 18:25 52.04033 -28.93659 43170 ft 552 kts 269°
2026-04-22 18:26 52.03394 -29.12333 43187 ft 552 kts 269°
2026-04-22 18:26 52.02953 -29.24775 43180 ft 552 kts 269°
2026-04-22 18:27 52.02498 -29.37210 43177 ft 551 kts 269°
2026-04-22 18:27 52.02032 -29.49627 43194 ft 551 kts 269°
2026-04-22 18:28 52.01551 -29.62031 43193 ft 550 kts 269°
2026-04-22 18:28 52.01062 -29.74364 43189 ft 550 kts 269°
2026-04-22 18:29 52.00556 -29.86766 43189 ft 550 kts 268°
2026-04-22 18:29 52.00040 -29.99147 43199 ft 550 kts 269°
2026-04-22 18:30 51.99870 -30.17712 43209 ft 549 kts 271°
2026-04-22 18:31 51.99739 -30.30107 43214 ft 549 kts 271°
2026-04-22 18:31 51.99621 -30.42417 43213 ft 549 kts 271°
2026-04-22 18:32 51.99474 -30.54887 43212 ft 549 kts 271°
2026-04-22 18:32 51.99324 -30.67185 43213 ft 549 kts 271°
2026-04-22 18:33 51.99156 -30.79595 43385 ft 549 kts 271°
2026-04-22 18:33 51.99067 -30.85827 43234 ft 556 kts 271°
2026-04-22 18:33 51.98975 -30.92117 43230 ft 558 kts 271°
2026-04-22 18:34 51.98776 -31.04755 43230 ft 558 kts 271°
2026-04-22 18:34 51.98568 -31.17262 43223 ft 559 kts 270°
2026-04-22 18:35 51.98345 -31.29847 43223 ft 558 kts 271°
2026-04-22 18:35 51.98108 -31.42456 43232 ft 559 kts 270°
2026-04-22 18:36 51.97858 -31.55050 43235 ft 559 kts 270°
2026-04-22 18:36 51.97595 -31.67638 43233 ft 557 kts 270°
2026-04-22 18:37 51.97318 -31.80225 43236 ft 558 kts 270°
2026-04-22 18:37 51.97077 -31.90676 43234 ft 558 kts 270°
2026-04-22 18:38 51.96724 -32.05381 43241 ft 556 kts 270°
2026-04-22 18:38 51.96410 -32.17840 43241 ft 557 kts 270°
2026-04-22 18:39 51.95911 -32.36663 43250 ft 556 kts 269°
2026-04-22 18:39 51.95562 -32.49181 43243 ft 556 kts 270°
2026-04-22 18:40 51.95198 -32.61711 43252 ft 554 kts 270°
2026-04-22 18:40 51.94828 -32.74089 43258 ft 554 kts 269°
2026-04-22 18:41 51.94441 -32.86554 43253 ft 554 kts 269°
2026-04-22 18:41 51.94041 -32.99020 43249 ft 553 kts 269°
2026-04-22 18:42 51.93627 -33.11471 43267 ft 552 kts 269°
2026-04-22 18:42 51.93203 -33.23872 43262 ft 550 kts 269°
2026-04-22 18:43 51.92766 -33.36260 43252 ft 550 kts 269°
2026-04-22 18:43 51.92315 -33.48645 43263 ft 551 kts 269°
2026-04-22 18:44 51.91852 -33.61023 43273 ft 550 kts 269°
2026-04-22 18:44 51.91387 -33.73307 43274 ft 550 kts 269°
2026-04-22 18:45 51.90883 -33.85741 43273 ft 550 kts 269°
2026-04-22 18:45 51.90394 -33.98017 43279 ft 550 kts 269°
2026-04-22 18:46 51.89875 -34.10375 43280 ft 550 kts 269°
2026-04-22 18:46 51.89351 -34.22723 43277 ft 549 kts 269°
2026-04-22 18:47 51.88810 -34.35064 43281 ft 548 kts 268°
2026-04-22 18:47 51.88253 -34.47369 43279 ft 548 kts 268°
2026-04-22 18:48 51.87701 -34.59694 43289 ft 548 kts 268°
2026-04-22 18:48 51.87111 -34.72000 43291 ft 548 kts 268°
2026-04-22 18:49 51.86534 -34.84213 43293 ft 547 kts 268°
2026-04-22 18:49 51.85928 -34.96488 43293 ft 547 kts 268°
2026-04-22 18:50 51.85316 -35.08772 43294 ft 547 kts 268°
2026-04-22 18:50 51.84687 -35.21046 43302 ft 547 kts 268°
2026-04-22 18:51 51.84048 -35.33313 43298 ft 547 kts 268°
2026-04-22 18:51 51.83394 -35.45590 43297 ft 547 kts 268°
2026-04-22 18:52 51.82729 -35.57848 43308 ft 547 kts 268°
2026-04-22 18:52 51.82055 -35.70022 43308 ft 547 kts 267°
2026-04-22 18:53 51.81366 -35.82254 43300 ft 546 kts 267°
2026-04-22 18:53 51.80663 -35.94478 43304 ft 545 kts 267°
2026-04-22 18:54 51.80073 -36.04606 43302 ft 544 kts 267°
2026-04-22 18:54 51.79350 -36.16781 43302 ft 545 kts 267°
2026-04-22 18:55 51.78614 -36.28962 43308 ft 545 kts 267°
2026-04-22 18:55 51.78241 -36.35042 43183 ft 545 kts 267°
2026-04-22 18:55 51.77865 -36.41141 43185 ft 544 kts 267°
2026-04-22 18:56 51.77105 -36.53294 43184 ft 543 kts 267°
2026-04-22 18:56 51.76335 -36.65414 43181 ft 542 kts 267°
2026-04-22 18:57 51.75552 -36.77528 43186 ft 543 kts 266°
2026-04-22 18:57 51.74757 -36.89631 43192 ft 543 kts 266°
2026-04-22 18:58 51.73948 -37.01764 43193 ft 543 kts 266°
2026-04-22 18:58 51.73127 -37.13884 43199 ft 543 kts 266°
2026-04-22 18:59 51.72293 -37.25991 43200 ft 543 kts 266°
2026-04-22 18:59 51.71447 -37.38092 43200 ft 543 kts 266°
2026-04-22 19:00 51.70594 -37.50118 43207 ft 542 kts 266°
2026-04-22 19:00 51.69725 -37.62192 43202 ft 541 kts 266°
2026-04-22 19:01 51.68845 -37.74248 43201 ft 541 kts 266°
2026-04-22 19:01 51.67953 -37.86291 43208 ft 541 kts 266°
2026-04-22 19:02 51.67046 -37.98358 43211 ft 542 kts 266°
2026-04-22 19:02 51.66128 -38.10388 43212 ft 540 kts 265°
2026-04-22 19:03 51.65204 -38.22369 43209 ft 539 kts 265°
2026-04-22 19:03 51.64271 -38.34278 43219 ft 539 kts 265°
2026-04-22 19:04 51.63320 -38.46270 43205 ft 539 kts 265°
2026-04-22 19:04 51.62357 -38.58242 43208 ft 539 kts 265°
2026-04-22 19:05 51.61384 -38.70188 43212 ft 537 kts 265°
2026-04-22 19:05 51.60402 -38.82099 43210 ft 537 kts 265°
2026-04-22 19:06 51.59406 -38.94021 43210 ft 537 kts 265°
2026-04-22 19:07 51.57890 -39.11884 43221 ft 537 kts 265°
2026-04-22 19:07 51.56872 -39.23697 43217 ft 536 kts 265°
2026-04-22 19:08 51.55837 -39.35573 43215 ft 536 kts 265°
2026-04-22 19:08 51.54789 -39.47449 43227 ft 536 kts 265°
2026-04-22 19:09 51.53730 -39.59313 43225 ft 536 kts 265°
2026-04-22 19:09 51.52657 -39.71176 43219 ft 537 kts 264°
2026-04-22 19:10 51.51574 -39.83027 43224 ft 536 kts 264°
2026-04-22 19:10 51.50480 -39.94870 43219 ft 536 kts 264°
2026-04-22 19:11 51.49347 -40.06651 43218 ft 537 kts 263°
2026-04-22 19:11 51.48056 -40.18453 43213 ft 536 kts 263°
2026-04-22 19:12 51.46845 -40.30276 43219 ft 537 kts 263°
2026-04-22 19:12 51.45564 -40.42066 43221 ft 537 kts 263°
2026-04-22 19:13 51.44309 -40.53861 43220 ft 537 kts 263°
2026-04-22 19:13 51.43019 -40.65645 43223 ft 537 kts 263°
2026-04-22 19:14 51.41729 -40.77427 43224 ft 536 kts 263°
2026-04-22 19:14 51.40422 -40.89200 43217 ft 536 kts 263°
2026-04-22 19:15 51.39329 -40.98980 43217 ft 536 kts 263°
2026-04-22 19:15 51.37787 -41.12639 43216 ft 537 kts 263°
2026-04-22 19:16 51.36444 -41.24406 43215 ft 536 kts 263°
2026-04-22 19:16 51.35092 -41.36151 43220 ft 536 kts 263°
2026-04-22 19:17 51.33727 -41.47897 43217 ft 536 kts 263°
2026-04-22 19:17 51.32353 -41.59614 43213 ft 536 kts 262°
2026-04-22 19:18 51.30966 -41.71335 43212 ft 536 kts 262°
2026-04-22 19:18 51.29566 -41.83055 43214 ft 536 kts 262°
2026-04-22 19:19 51.28167 -41.94669 43214 ft 535 kts 262°
2026-04-22 19:19 51.26749 -42.06342 43211 ft 535 kts 262°
2026-04-22 19:20 51.25317 -42.18014 43204 ft 535 kts 262°
2026-04-22 19:20 51.23875 -42.29673 43212 ft 536 kts 262°
2026-04-22 19:21 51.22420 -42.41336 43212 ft 535 kts 262°
2026-04-22 19:21 51.20955 -42.52984 43210 ft 535 kts 262°
2026-04-22 19:22 51.19480 -42.64601 43209 ft 534 kts 262°
2026-04-22 19:22 51.18002 -42.76153 43209 ft 535 kts 261°
2026-04-22 19:23 51.16503 -42.87768 43202 ft 534 kts 261°
2026-04-22 19:23 51.14996 -42.99348 43243 ft 532 kts 259°
2026-04-22 19:24 51.13487 -43.10841 43196 ft 526 kts 261°
2026-04-22 19:24 51.11982 -43.22239 43189 ft 527 kts 261°
2026-04-22 19:25 51.10469 -43.33583 43192 ft 528 kts 261°
2026-04-22 19:25 51.08936 -43.44997 43193 ft 526 kts 260°
2026-04-22 19:26 51.07397 -43.56358 43192 ft 525 kts 260°
2026-04-22 19:26 51.05847 -43.67714 43190 ft 525 kts 260°
2026-04-22 19:27 51.04283 -43.79088 43189 ft 526 kts 260°
2026-04-22 19:27 51.02711 -43.90429 43188 ft 526 kts 260°
2026-04-22 19:28 51.01129 -44.01756 43189 ft 525 kts 260°
2026-04-22 19:28 50.99539 -44.13057 43183 ft 525 kts 260°
2026-04-22 19:29 50.97944 -44.24298 43173 ft 525 kts 259°
2026-04-22 19:29 50.96328 -44.35610 43169 ft 525 kts 259°
2026-04-22 19:30 50.94980 -44.44991 43170 ft 524 kts 259°
2026-04-22 19:30 50.93075 -44.58137 43214 ft 523 kts 257°
2026-04-22 19:31 50.91430 -44.69392 43164 ft 520 kts 259°
2026-04-22 19:31 50.89790 -44.80554 43158 ft 521 kts 259°
2026-04-22 19:32 50.88133 -44.91729 43161 ft 521 kts 258°
2026-04-22 19:32 50.86478 -45.02822 43162 ft 521 kts 258°
2026-04-22 19:33 50.84803 -45.13975 43150 ft 521 kts 258°
2026-04-22 19:33 50.83114 -45.25132 43151 ft 521 kts 258°
2026-04-22 19:34 50.81413 -45.36296 43134 ft 521 kts 258°
2026-04-22 19:34 50.79714 -45.47366 43143 ft 520 kts 258°
2026-04-22 19:35 50.78000 -45.58459 43139 ft 519 kts 258°
2026-04-22 19:35 50.76567 -45.67673 43131 ft 519 kts 258°
2026-04-22 19:36 50.74539 -45.80625 43138 ft 520 kts 258°
2026-04-22 19:36 50.72792 -45.91703 43125 ft 520 kts 257°
2026-04-22 19:37 50.71032 -46.02787 43128 ft 519 kts 257°
2026-04-22 19:37 50.69276 -46.13775 43116 ft 519 kts 257°
2026-04-22 19:38 50.67500 -46.24815 43112 ft 519 kts 257°
2026-04-22 19:38 50.66013 -46.33995 43106 ft 520 kts 257°
2026-04-22 19:39 50.64216 -46.45031 43112 ft 520 kts 256°
2026-04-22 19:39 50.62408 -46.56060 43103 ft 519 kts 256°
2026-04-22 19:40 50.60603 -46.67002 43096 ft 519 kts 256°
2026-04-22 19:40 50.58776 -46.78006 43097 ft 520 kts 256°
2026-04-22 19:41 50.56937 -46.89008 43085 ft 520 kts 255°
2026-04-22 19:41 50.55094 -46.99962 43083 ft 516 kts 255°
2026-04-22 19:42 50.53248 -47.10867 43087 ft 516 kts 255°
2026-04-22 19:42 50.51392 -47.21759 43083 ft 516 kts 254°
2026-04-22 19:43 50.48591 -47.38082 43072 ft 515 kts 254°
2026-04-22 19:43 50.46724 -47.48871 43067 ft 515 kts 254°
2026-04-22 19:44 50.44833 -47.59739 43065 ft 515 kts 254°
2026-04-22 19:44 50.42931 -47.70593 43055 ft 516 kts 254°
2026-04-22 19:45 50.41017 -47.81455 43056 ft 516 kts 254°
2026-04-22 19:45 50.39107 -47.92232 43040 ft 515 kts 253°
2026-04-22 19:46 50.37176 -48.03057 43037 ft 515 kts 253°
2026-04-22 19:46 50.35238 -48.13854 43031 ft 515 kts 252°
2026-04-22 19:47 50.33300 -48.24597 43031 ft 516 kts 252°
2026-04-22 19:47 50.31338 -48.35397 43022 ft 516 kts 252°
2026-04-22 19:48 50.29364 -48.46213 43008 ft 517 kts 251°
2026-04-22 19:48 50.27374 -48.57038 43011 ft 518 kts 251°
2026-04-22 19:49 50.25374 -48.67865 43000 ft 518 kts 251°
2026-04-22 19:49 50.23363 -48.78675 42999 ft 518 kts 251°
2026-04-22 19:50 50.21356 -48.89413 42979 ft 519 kts 251°
2026-04-22 19:50 50.19323 -49.00223 42982 ft 520 kts 251°
2026-04-22 19:51 50.17273 -49.11061 42968 ft 521 kts 251°
2026-04-22 19:51 50.15209 -49.21912 42969 ft 521 kts 250°
2026-04-22 19:52 50.13135 -49.32750 42975 ft 522 kts 250°
2026-04-22 19:52 50.11048 -49.43593 42942 ft 522 kts 250°
2026-04-22 19:53 50.08951 -49.54427 42946 ft 523 kts 250°
2026-04-22 19:53 50.06841 -49.65272 42933 ft 523 kts 250°
2026-04-22 19:54 50.04734 -49.76035 42928 ft 523 kts 250°
2026-04-22 19:54 50.02602 -49.86868 42919 ft 523 kts 250°
2026-04-22 19:55 50.00456 -49.97708 42925 ft 524 kts 250°
2026-04-22 19:55 49.97997 -50.08359 42909 ft 523 kts 246°
2026-04-22 19:56 49.95469 -50.18889 42898 ft 523 kts 247°
2026-04-22 19:56 49.92911 -50.29475 42892 ft 523 kts 246°
2026-04-22 19:57 49.90341 -50.40067 42882 ft 524 kts 246°
2026-04-22 19:57 49.87756 -50.50664 42884 ft 525 kts 246°
2026-04-22 19:58 49.85162 -50.61247 42874 ft 525 kts 246°
2026-04-22 19:58 49.82578 -50.71745 42883 ft 525 kts 246°
2026-04-22 20:00 49.73595 -51.07834 42831 ft 497 kts 246°
2026-04-22 20:01 49.71087 -51.17824 42853 ft 499 kts 246°
2026-04-22 20:01 49.68563 -51.27817 42840 ft 499 kts 246°
2026-04-22 20:02 49.66027 -51.37811 42842 ft 500 kts 246°
2026-04-22 20:02 49.63498 -51.47746 42711 ft 499 kts 248°
2026-04-22 20:02 49.62218 -51.52749 42828 ft 503 kts 246°
2026-04-22 20:03 49.60946 -51.57720 42836 ft 494 kts 246°
2026-04-22 20:03 49.59681 -51.62645 43105 ft 493 kts 246°
2026-04-22 20:03 49.58413 -51.67567 43104 ft 494 kts 246°
2026-04-22 20:04 49.55873 -51.77409 43108 ft 495 kts 246°
2026-04-22 20:04 49.53312 -51.87290 43109 ft 496 kts 246°
2026-04-22 20:05 49.50313 -51.96788 43107 ft 492 kts 235°
2026-04-22 20:05 49.45990 -52.04798 43110 ft 489 kts 222°
2026-04-22 20:06 49.40731 -52.11436 43120 ft 489 kts 218°
2026-04-22 20:06 49.35421 -52.18000 43122 ft 490 kts 218°
2026-04-22 20:07 49.30087 -52.24529 43142 ft 490 kts 218°
2026-04-22 20:07 49.24755 -52.31061 43113 ft 490 kts 218°
2026-04-22 20:08 49.19457 -52.37524 43117 ft 490 kts 218°
2026-04-22 20:08 49.14115 -52.44026 43121 ft 491 kts 218°
2026-04-22 20:09 49.08763 -52.50519 43133 ft 491 kts 218°
2026-04-22 20:09 49.03406 -52.57001 43137 ft 491 kts 218°
2026-04-22 20:10 48.98056 -52.63456 43144 ft 491 kts 218°
2026-04-22 20:10 48.92689 -52.69915 43136 ft 491 kts 218°
2026-04-22 20:11 48.87354 -52.76316 43096 ft 492 kts 218°
2026-04-22 20:11 48.84681 -52.79515 42502 ft 488 kts 218°
2026-04-22 20:11 48.82014 -52.82704 41732 ft 486 kts 218°
2026-04-22 20:11 48.79377 -52.85853 40707 ft 480 kts 218°
2026-04-22 20:12 48.76797 -52.88930 39033 ft 465 kts 218°
2026-04-22 20:12 48.74261 -52.91949 36539 ft 458 kts 218°
2026-04-22 20:12 48.72611 -52.93911 35249 ft 451 kts 217°
2026-04-22 20:12 48.69426 -52.97698 33052 ft 421 kts 217°
2026-04-22 20:13 48.67160 -53.00386 31534 ft 411 kts 217°
2026-04-22 20:13 48.64891 -53.03070 30271 ft 418 kts 216°
2026-04-22 20:13 48.62612 -53.05767 30014 ft 416 kts 216°
2026-04-22 20:13 48.60256 -53.08549 29053 ft 449 kts 216°
2026-04-22 20:14 48.57775 -53.11473 27833 ft 453 kts 216°
2026-04-22 20:14 48.55310 -53.14393 27226 ft 441 kts 216°
2026-04-22 20:14 48.52966 -53.17163 27298 ft 416 kts 215°
2026-04-22 20:14 48.50699 -53.19820 27295 ft 414 kts 215°
2026-04-22 20:15 48.48423 -53.22479 26659 ft 422 kts 215°
2026-04-22 20:15 48.46129 -53.25182 26269 ft 411 kts 215°
2026-04-22 20:15 48.43898 -53.27807 26193 ft 409 kts 215°
2026-04-22 20:15 48.41597 -53.30486 25207 ft 419 kts 215°
2026-04-22 20:16 48.39336 -53.33134 24945 ft 403 kts 215°
2026-04-22 20:16 48.37134 -53.35717 24880 ft 403 kts 215°
2026-04-22 20:16 48.34879 -53.38334 23878 ft 414 kts 214°
2026-04-22 20:16 48.32620 -53.40966 23357 ft 402 kts 215°
2026-04-22 20:17 48.30481 -53.43471 23360 ft 389 kts 214°
2026-04-22 20:17 48.28311 -53.45984 22849 ft 401 kts 214°
2026-04-22 20:17 48.26109 -53.48535 22422 ft 391 kts 214°
2026-04-22 20:17 48.23975 -53.51027 22341 ft 391 kts 214°
2026-04-22 20:18 48.21787 -53.53551 21483 ft 397 kts 214°
2026-04-22 20:18 48.19642 -53.56035 21395 ft 382 kts 214°
2026-04-22 20:18 48.17506 -53.58507 20946 ft 394 kts 214°
2026-04-22 20:18 48.15324 -53.61023 20173 ft 392 kts 214°
2026-04-22 20:19 48.13222 -53.63462 20156 ft 377 kts 214°
2026-04-22 20:19 48.11103 -53.65895 19638 ft 390 kts 214°
2026-04-22 20:19 48.08945 -53.68326 19104 ft 382 kts 211°
2026-04-22 20:19 48.06572 -53.69981 18513 ft 375 kts 193°
2026-04-22 20:20 48.04000 -53.70435 18093 ft 367 kts 182°
2026-04-22 20:20 48.01447 -53.70229 17587 ft 372 kts 172°
2026-04-22 20:20 47.98975 -53.69251 16786 ft 374 kts 162°
2026-04-22 20:20 47.96615 -53.67504 16157 ft 376 kts 151°
2026-04-22 20:21 47.94569 -53.65113 15574 ft 381 kts 139°
2026-04-22 20:21 47.92833 -53.62116 14964 ft 383 kts 131°
2026-04-22 20:21 47.91203 -53.58990 14344 ft 380 kts 131°
2026-04-22 20:21 47.89546 -53.55953 13730 ft 376 kts 131°
2026-04-22 20:22 47.87888 -53.52954 13090 ft 372 kts 131°
2026-04-22 20:22 47.86287 -53.49958 12500 ft 366 kts 130°
2026-04-22 20:22 47.84721 -53.47027 11903 ft 354 kts 131°
2026-04-22 20:22 47.83232 -53.44320 11350 ft 322 kts 131°
2026-04-22 20:23 47.81876 -53.41847 10867 ft 296 kts 131°
2026-04-22 20:23 47.80625 -53.39542 10411 ft 278 kts 131°
2026-04-22 20:23 47.79393 -53.37286 9980 ft 283 kts 131°
2026-04-22 20:23 47.78568 -53.35779 9658 ft 285 kts 131°
2026-04-22 20:24 47.77317 -53.33490 9182 ft 284 kts 131°
2026-04-22 20:24 47.76101 -53.31250 8757 ft 271 kts 130°
2026-04-22 20:24 47.75143 -53.28859 8504 ft 272 kts 122°
2026-04-22 20:24 47.73924 -53.26668 8052 ft 276 kts 138°
2026-04-22 20:25 47.72523 -53.24704 7587 ft 278 kts 137°
2026-04-22 20:25 47.71248 -53.22527 7104 ft 281 kts 130°
2026-04-22 20:25 47.70065 -53.20214 6622 ft 282 kts 129°
2026-04-22 20:25 47.68852 -53.17965 6116 ft 283 kts 131°
2026-04-22 20:26 47.67583 -53.15708 5607 ft 283 kts 131°
2026-04-22 20:26 47.66375 -53.13527 5111 ft 265 kts 130°
2026-04-22 20:26 47.65225 -53.11423 4672 ft 262 kts 129°
2026-04-22 20:26 47.64060 -53.09321 4207 ft 265 kts 128°
2026-04-22 20:27 47.62885 -53.07185 3744 ft 267 kts 127°
2026-04-22 20:27 47.61866 -53.04945 3253 ft 260 kts 112°
2026-04-22 20:27 47.61339 -53.02433 3090 ft 252 kts 97°
2026-04-22 20:27 47.61248 -52.99857 3060 ft 246 kts 83°
2026-04-22 20:28 47.61394 -52.97404 2926 ft 241 kts 81°
2026-04-22 20:28 47.61511 -52.94993 2567 ft 226 kts 83°
2026-04-22 20:28 47.61609 -52.92755 2259 ft 210 kts 81°
2026-04-22 20:28 47.61719 -52.90662 1964 ft 198 kts 81°
2026-04-22 20:29 47.61814 -52.88682 1698 ft 188 kts 81°
2026-04-22 20:29 47.61901 -52.86835 1427 ft 171 kts 80°
2026-04-22 20:29 47.61979 -52.85136 1222 ft 160 kts 80°
2026-04-22 20:29 47.62061 -52.83584 1029 ft 144 kts 79°
2026-04-22 20:30 47.62134 -52.82094 909 ft 145 kts 82°
2026-04-22 20:30 47.62194 -52.80609 806 ft 144 kts 82°
2026-04-22 20:30 47.62274 -52.79150 701 ft 141 kts 81°
2026-04-22 20:30 47.62335 -52.77692 576 ft 143 kts 83°
2026-04-22 20:31 47.62407 -52.76274 470 ft 131 kts 84°
2026-04-22 20:31 47.62460 -52.75107 434 ft 79 kts 91°
2026-04-22 20:31 47.62282 -52.74791 440 ft 30 kts 143°
2026-04-22 20:31 47.62140 -52.74621 446 ft 19 kts 160°
2026-04-22 20:32 47.62092 -52.74658 448 ft 6 kts 233°
2026-04-22 20:32 47.62062 -52.74711 452 ft 7 kts 229°
2026-04-22 20:32 47.62020 -52.74766 456 ft 11 kts 191°
2026-04-22 20:32 47.61974 -52.74718 456 ft 11 kts 136°
2026-04-22 20:33 47.61894 -52.74620 456 ft 19 kts 140°
2026-04-22 20:33 47.61763 -52.74460 433 ft 31 kts 140°
2026-04-22 20:33 47.61615 -52.74262 435 ft 22 kts 147°
2026-04-22 20:33 47.61542 -52.74304 441 ft 13 kts 229°
2026-04-22 20:34 47.61471 -52.74325 440 ft 12 kts 136°
2026-04-22 20:34 47.61425 -52.74177 436 ft 20 kts 112°
2026-04-22 20:34 47.61362 -52.73994 437 ft 15 kts 137°
2026-04-22 20:34 47.61280 -52.73963 437 ft 1 kts 184°
2026-04-22 20:35 47.61259 -52.73966 439 ft 6 kts 184°
2026-04-22 20:35 47.61206 -52.73963 435 ft 11 kts 175°
2026-04-22 20:35 47.61126 -52.73953 434 ft 12 kts 175°
2026-04-22 20:35 47.61051 -52.73934 440 ft 10 kts 173°
2026-04-22 20:36 47.61037 -52.73950 443 ft 2 kts 253°
2026-04-22 20:36 47.61036 -52.73955 443 ft 1 kts 259°
2026-04-22 20:36 47.61036 -52.73964 435 ft 0 kts 263°
2026-04-22 20:36 47.61035 -52.73965 436 ft 0 kts 263°